Regional Weather Roundup
Issued by NWS

Home | Current Version | Previous Version | Text Only | Print | Product List | Glossary On
Versions: 1 2 3 4 5 6 7 8 9 10 11 12 13 14 15 16 17 18 19 20 21 22 23 24 25 26 27 28 29 30 31 32 33 34 35 36 37 38 39 40 41 42 43 44 45 46 47 48 49 50
000
ASUS43 KOAX 220502
RWRNE

WEATHER ROUNDUP FOR NEBRASKA
NATIONAL WEATHER SERVICE OMAHA NE
1100 PM CST FRI NOV 21 2014

NOTES: SATELLITE DATA IS BEING USED TO AUGMENT CLOUD COVER ABOVE
       12000 FEET.
       "FAIR" INDICATES FEW OR NO CLOUDS BELOW 12,000 FEET WITH NO
       SIGNIFICANT WEATHER AND/OR OBSTRUCTIONS TO VISIBILITY.

  * THESE STATIONS DO NOT REPORT WEATHER SUCH AS RAIN...SNOW OR FOG.

NEZ001>004-019>022-054>056-220600-
NEBRASKA PANHANDLE

CITY           SKY/WX    TMP DP  RH WIND       PRES   REMARKS
SCOTTSBLUFF    CLEAR     26  18  71 CALM      29.89S
ALLIANCE       CLEAR     22  16  78 CALM      29.87F
CHADRON        CLEAR     25  22  88 W5        29.85F WCI  19
KIMBALL        CLEAR     28  18  68 SW7       29.90F WCI  20
SIDNEY         CLEAR     25  16  68 NW6       29.92S WCI  18
$$

NEZ057>060-069>072-079>082-220600-
SOUTHWEST NEBRASKA

CITY           SKY/WX    TMP DP  RH WIND       PRES   REMARKS
NORTH PLATTE   CLEAR     29  24  82 CALM      29.91S
IMPERIAL       PTCLDY    30  22  72 W8        29.92R WCI  22
LEXINGTON      CLEAR     35  32  89 S7        29.93S WCI  29
MCCOOK         CLEAR     34  32  92 SW7       29.93R WCI  28
$$

NEZ005>010-023>029-035>040-094-220600-
NORTH CENTRAL NEBRASKA

CITY           SKY/WX    TMP DP  RH WIND       PRES   REMARKS
VALENTINE      CLEAR     27  24  89 W5        29.84F WCI  22
AINSWORTH      CLEAR     36  28  72 SW10      29.84F WCI  28
BROKEN BOW     CLEAR     32  26  78 SW8       29.90F WCI  25
ORD            CLEAR     34  28  79 S8        29.91S WCI  27
$$

NEZ041-046>049-061>064-073>077-083>087-220600-
SOUTH CENTRAL NEBRASKA

CITY           SKY/WX    TMP DP  RH WIND       PRES   REMARKS
GRAND ISLAND   CLOUDY    39  35  86 S10       29.95R FOG     WCI  32
AURORA         CLOUDY    37  35  94 S10       29.94F FOG     WCI  29
HASTINGS       CLOUDY    36  33  89 S9        29.95S FOG     WCI  29
HEBRON         CLOUDY    36  33  88 CALM      30.00S FOG
HOLDREGE       CLEAR     33  30  88 SW7       29.95R WCI  26
KEARNEY *      CLEAR     36  30  80 S9        29.96R WCI  29
YORK           CLOUDY    36  34  93 S10       29.96F FOG     WCI  28
$$

NEZ011>018-030>034-042>045-220600-
NORTHEAST NEBRASKA

CITY           SKY/WX    TMP DP  RH WIND       PRES   REMARKS
NORFOLK        CLOUDY    37  33  85 S14       29.92S WCI  28
ALBION         MOCLDY    36  29  78 S8        29.92S WCI  29
BLAIR          CLOUDY    36  34  92 S14       29.96F FOG     WCI  27
COLUMBUS *     CLOUDY    36  32  87 S10       29.96S WCI  28
FREMONT        CLOUDY    37  36  97 S12       29.97S FOG     WCI  29
TEKAMAH        CLOUDY    37  33  85 S15       29.97S FOG     WCI  28
WAYNE          CLOUDY    36  32  87 S9        29.93S WCI  29
$$

NEZ050>053-065>068-078-088>093-220600-
SOUTHEAST NEBRASKA

CITY           SKY/WX    TMP DP  RH WIND       PRES   REMARKS
LINCOLN        CLOUDY    37  34  89 S8        30.00F FOG     WCI  31
OMAHA EPPLEY   DRIZZLE   36  35  96 S13       30.00F FOG     WCI  27
BEATRICE       CLOUDY    36  36  99 S6        30.00S FOG     WCI  31
FALLS CITY     FOG       36  35  96 SE6       30.02F VSB 1   WCI  31
NEBRASKA CITY  FOG       34  34  99 S6        30.01F VSB 1/2 WCI  29
$$

NEZ044-045-051>053-067-220600-
OMAHA AREA

CITY           SKY/WX    TMP DP  RH WIND       PRES   REMARKS
OMAHA EPPLEY   DRIZZLE   36  35  96 S13       30.00F FOG     WCI  27
BLAIR          CLOUDY    36  34  92 S14       29.96F FOG     WCI  27
FREMONT        CLOUDY    37  36  97 S12       29.97S FOG     WCI  29
MILLARD        CLOUDY    37  35  92 S8        29.99F FOG     WCI  30
OFFUTT AFB     MOCLDY    35  34  95 S8        29.99F FOG     WCI  29
WAHOO          CLOUDY    36  34  92 S9        29.97F FOG     WCI  29
$$



USA.gov is the U.S. government's official web portal to all federal, state and local government web resources and services.